Location: Smyrna_Hopewell
(35.6500°N, 81.0330°W)
Time: 01:42:47
(UTC-04:00)

Cosmos 2221 - Visible Passes

Search period start: 20 April 2014 00:00
Search period end: 30 April 2014 00:00
Orbit: 600 x 623 km, 82.5° (Epoch: 19 April)

Date Brightness Start Highest point End Pass type
(mag) Time Alt. Az. Time Alt. Az. Time Alt. Az.
20 Apr 5.2 03:17:07 10° N 03:18:00 16° N 03:18:00 16° N visible
21 Apr 5.2 03:31:55 10° N 03:32:36 14° N 03:32:36 14° N visible
22 Apr 5.3 03:46:58 10° NNW 03:47:13 11° NNW 03:47:13 11° NNW visible
23 Apr 5.8 02:24:45 10° NNE 02:24:52 11° NNE 02:24:52 11° NNE visible
24 Apr 5.6 02:39:05 10° N 02:39:30 12° N 02:39:30 12° N visible
25 Apr 5.5 02:53:45 10° N 02:54:08 12° N 02:54:08 12° N visible
26 Apr 5.5 03:08:42 10° NNW 03:08:48 11° NNW 03:08:48 11° NNW visible
28 Apr 5.7 02:00:59 10° NNE 02:01:08 11° NNE 02:01:08 11° NNE visible
29 Apr 5.6 02:15:32 10° N 02:15:49 12° N 02:15:49 12° N visible
